Location: Buffign�court
(47.8126°N, 6.0176°E)
Time: 19:56:51
(UTC+00:00)

Cosmos 2237 Rocket - Pass Details

Date: 16 June 2021
Orbit: 835 x 850 km, 71.0° (Epoch: 31 July)

Event Time Altitude Azimuth Distance (km) Brightness Sun altitude
Exits shadow 21:41:40 14° 116° (ESE) 2,183 3.9 -14.3°
Maximum altitude 21:43:14 15° 98° (E) 2,091 3.9 -14.4°
Drops below altitude 10° 21:46:21 10° 63° (ENE) 2,452 4.6 -14.6°
Sets 21:49:48 0° 42° (NE) 3,393 5.7 -14.9°
